Theta_e
338 338 338 338 338 338 339 345 349 352 352 353 351 350 348 351 349 348 347 348 348 348 348 346 345 346 347 346 348 346 351 352 353
339 338 341 342 342 339 337 339 342 347 349 351 351 350 348 346 348 347 347 348 348 347 346 346 345 344 345 346 348 344 347 350 352
344 344 344 344 344 343 342 340 338 341 345 347 349 350 348 347 346 347 348 347 349 347 346 346 345 343 344 345 345 348 345 347 351
348 347 348 348 348 347 345 345 344 342 340 341 344 346 348 347 345 344 344 347 348 349 345 345 346 345 342 343 344 344 347 346 349
341 346 346 345 345 345 343 342 341 339 339 340 338 336 340 343 344 342 344 344 347 349 350 346 345 345 346 344 342 343 344 347 348
327 327 333 336 337 337 337 337 336 337 334 333 333 334 329 329 332 337 340 340 344 346 349 349 346 345 345 346 346 343 344 345 347
319 319 320 322 323 323 326 328 329 336 335 337 337 336 335 332 330 329 334 335 338 344 346 349 348 347 346 345 346 347 345 346 347
316 316 316 316 317 316 318 319 321 323 324 328 331 331 332 335 334 331 328 330 332 334 342 346 347 347 346 345 345 346 346 347 348
312 312 313 313 313 313 313 313 314 315 316 317 320 323 326 330 332 334 326 327 331 333 333 338 346 347 347 346 345 345 346 346 348
311 310 311 311 311 311 310 311 311 312 312 312 312 314 316 320 323 326 325 321 325 329 333 334 336 341 347 347 346 345 345 345 346
309 309 309 309 309 309 309 309 309 309 310 310 311 312 312 313 315 317 320 322 320 323 325 329 333 335 339 347 346 346 345 344 344
309 308 308 308 308 308 308 308 308 308 308 308 309 310 311 312 313 313 315 317 323 320 319 324 328 334 335 339 348 346 347 345 344
309 309 308 308 308 307 307 306 306 306 306 306 307 308 309 310 311 312 313 314 314 320 324 322 326 330 335 336 339 348 346 346 345
310 309 308 308 308 307 306 306 305 305 305 305 306 307 307 308 308 309 311 313 315 317 324 320 323 326 330 334 336 341 347 346 346
309 309 308 308 307 306 306 304 305 305 305 304 304 307 307 308 308 308 310 312 316 319 318 317 318 317 321 326 333 336 343 346 346
308 308 307 307 306 305 305 304 304 303 305 303 303 304 306 307 309 310 310 312 313 315 315 314 315 315 320 319 325 332 336 343 344
306 306 306 306 305 305 305 304 303 303 304 300 300 298 301 305 310 310 309 310 311 312 313 313 313 314 314 318 320 322 327 334 342
305 306 305 304 304 303 304 304 303 300 303 302 299 296 295 298 302 304 306 306 306 307 307 309 310 310 311 315 318 322 321 324 329
305 304 304 304 304 303 303 303 302 301 299 301 301 301 300 295 295 301 302 304 303 305 306 307 308 309 311 314 317 317 317 319 322
304 304 303 303 303 303 302 301 301 301 299 299 299 299 299 299 296 294 298 301 303 304 305 306 306 308 308 309 313 318 318 315 317
Wind_Speed
9 9 10 10 11 11 11 10 9 11 11 11 8 9 8 10 5 5 5 7 7 7 8 8 9 9 10 9 10 8 8 10 11
8 8 8 9 10 10 10 10 9 8 9 10 10 9 9 9 5 4 5 8 4 4 5 6 7 7 7 8 9 7 6 6 10
7 7 7 8 8 9 10 10 9 9 9 9 9 9 10 6 5 6 5 7 7 4 3 2 4 5 5 6 6 7 4 4 7
8 7 8 9 8 8 10 10 10 9 9 9 9 8 7 8 5 7 4 10 8 10 1 1 0 1 2 3 4 4 4 2 8
15 14 15 13 12 12 10 11 10 8 7 8 8 8 9 6 5 4 5 8 10 11 11 4 3 2 2 2 2 3 3 3 7
10 14 14 13 13 12 12 12 10 9 3 4 5 9 4 6 5 4 9 9 11 12 13 8 6 4 4 4 4 3 2 2 5
7 10 12 12 11 9 10 9 9 8 6 4 4 4 5 4 4 4 9 9 11 13 13 13 8 7 6 5 5 5 6 5 6
6 5 6 6 9 7 8 8 7 9 7 6 6 6 6 4 4 4 9 10 10 12 13 12 10 10 9 8 7 6 6 9 10
6 5 6 6 6 8 8 6 8 9 9 9 9 9 7 5 5 2 6 10 11 11 12 12 11 11 12 11 9 8 7 7 13
5 6 6 6 7 7 7 7 8 8 9 9 10 10 9 9 6 5 1 7 11 11 12 12 13 14 13 13 12 10 10 10 8
6 5 6 6 6 7 7 8 8 8 9 10 10 10 10 10 10 7 7 6 8 11 12 13 13 14 15 15 15 13 12 12 11
6 5 6 6 6 8 7 8 8 8 8 10 9 9 11 10 11 10 8 8 7 9 12 13 14 14 15 16 15 15 14 13 13
5 5 5 6 5 6 7 7 8 8 8 9 9 9 10 12 12 11 9 8 8 7 10 10 14 15 14 15 17 16 17 16 14
4 5 5 5 5 6 6 7 8 9 9 10 10 10 10 11 11 14 12 11 10 8 4 5 9 10 13 14 16 18 18 18 16
4 4 5 6 6 6 7 9 8 9 9 10 11 10 10 10 11 12 10 10 9 8 7 7 6 4 8 10 14 16 19 19 18
4 5 6 7 7 8 8 8 10 9 9 9 10 10 14 9 8 8 8 9 10 10 9 7 7 6 8 11 10 14 17 19 21
5 6 7 8 7 9 9 9 8 8 8 8 11 8 9 10 4 6 7 9 8 9 10 11 11 9 9 9 4 10 13 16 17
6 7 8 9 8 8 9 9 10 9 9 11 6 7 6 11 11 11 8 11 10 12 14 14 13 14 12 11 10 10 7 11 16
6 8 8 9 8 10 9 9 10 10 11 9 9 13 13 11 10 9 11 12 13 15 11 13 13 13 11 13 10 10 12 12 13
8 9 10 10 9 10 12 12 12 10 11 11 11 12 12 14 14 15 12 12 12 12 10 11 11 14 14 12 14 11 11 13 14
Wind_Direction
40 41 40 37 33 30 28 25 20 24 27 24 24 22 12 288 33 29 66 36 55 49 50 47 43 41 41 46 44 59 68 82 89
54 51 43 39 36 34 33 26 25 19 21 24 24 18 355 342 360 345 6 48 24 36 54 47 40 40 38 37 36 57 78 87 104
50 46 40 33 31 32 33 28 23 21 21 15 21 21 358 292 322 344 334 50 350 346 61 56 39 31 32 33 36 41 50 64 124
40 48 25 24 18 29 30 27 23 18 21 17 9 5 349 309 350 314 308 35 338 323 243 164 301 353 5 13 21 24 23 35 152
47 45 46 37 33 33 28 28 21 12 19 20 7 336 281 306 298 298 30 356 328 319 316 228 229 253 259 301 330 355 354 22 153
58 48 45 39 38 34 29 25 14 345 122 46 350 288 360 305 307 300 48 339 322 312 310 293 225 238 249 261 266 260 277 278 177
58 55 39 37 21 28 20 19 357 341 347 353 251 342 327 297 310 310 21 333 321 312 308 315 246 241 244 249 266 260 234 242 218
33 33 25 14 14 9 360 358 5 352 347 336 328 326 324 316 307 16 7 332 318 312 309 300 280 248 249 249 251 261 256 233 243
39 32 22 16 8 1 2 353 348 341 337 332 326 323 322 314 314 346 24 338 332 322 309 301 294 263 251 250 246 242 247 248 237
40 32 28 22 3 359 352 347 340 334 332 327 323 317 314 309 307 305 82 321 321 320 316 305 292 285 270 248 248 247 245 247 248
38 32 27 18 7 354 349 345 340 329 327 323 315 308 304 299 294 292 293 277 286 302 303 302 296 283 279 263 246 244 247 245 246
44 31 23 13 4 351 348 342 333 325 322 315 314 308 305 300 294 289 289 288 262 262 289 291 289 287 278 274 255 247 245 244 246
44 31 22 4 357 346 344 339 330 325 319 316 314 306 299 294 290 287 284 282 288 277 256 287 284 280 278 276 269 246 240 242 242
32 20 11 359 349 341 337 332 327 319 318 310 309 300 295 292 290 284 278 271 275 275 266 264 276 272 275 275 273 265 240 235 238
358 359 356 348 339 338 334 328 323 316 312 311 304 296 292 281 276 281 285 277 262 263 276 288 270 251 283 282 272 270 265 233 235
340 341 337 338 330 329 321 320 317 314 320 308 311 302 288 288 277 273 278 274 266 261 266 271 274 279 259 269 273 270 264 261 236
312 321 322 320 318 315 315 315 309 303 306 308 306 293 307 266 305 284 279 277 272 270 269 273 275 278 281 281 262 277 272 268 264
300 308 310 311 309 302 304 300 297 295 295 291 282 298 293 323 294 265 278 290 284 279 277 277 276 276 270 271 257 225 266 277 267
292 300 300 299 297 292 294 291 290 289 284 285 273 265 269 280 289 281 288 290 282 277 271 274 276 275 270 268 264 284 278 281 280
298 298 299 293 293 291 293 291 285 282 281 277 278 275 272 271 269 278 279 275 274 273 270 270 271 275 274 269 266 253 249 268 277